小惑星2006 RB117

2006 RB117

English version
Home page
Updated on February 4, 2008

---------------------------------------------------------------------

・ プロフィール

発見日 2006年9月14日
発見光度
発見者

・ 軌道要素

The following orbital elements are taken from MPEC 2008-B50:

Epoch 2006 Sept. 2.0 TT = JDT 2453980.5                 MPC
M 326.70598              (2000.0)            P               Q
n   0.08583568     Peri.  104.59588     -0.68012905     -0.73299946
a   5.0896838      Node    28.26873     +0.66275514     -0.62160141
e   0.7107174      Incl.    1.41235     +0.31333703     -0.27626704
P  11.5            H   16.7           G   0.15
From 44 observations 2006 Sept. 14-22.

・ 光度変化

        H = 16.7  G = 0.15

---------------------------------------------------------------------

軌道要素はMPCのEphemerides and Orbital Elementsに掲載されたものです。
光度グラフはComet for Windowsで作成したものです。

---------------------------------------------------------------------

Copyright(C) Seiichi Yoshida (comet@aerith.net). All rights reserved.